C/2018 W2 ( Africano )

Japanese version
Home page
Updated on May 24, 2020

---------------------------------------------------------------------

* Profile

Discovery Date November 27, 2018
Magnitude 18.3 mag and 18.2 mag
Discoverer B. M. Africano (Mount Lemmon), H. Groeller (Catalina Sky Survey)

* Pictures

* Orbital Elements

Epoch 2019 Aug. 25.0 TT = JDT 2458720.5
T 2019 Sept. 5.72953 TT                                 Rudenko
q   1.4546668            (2000.0)            P               Q
z  -0.0005214      Peri.  157.97321     +0.92110260     +0.38824908
 +/-0.0000005      Node   181.84961     +0.04815150     -0.04006002
e   1.0007585      Incl.  116.61561     +0.38633074     -0.92068336
From 2045 observations 2018 Nov. 27-2020 Apr. 21, mean residual 0".8.

* Finding Charts

* Magnitudes Graph

        m1 = 8.0 + 5 log d + 12.5 log r

---------------------------------------------------------------------

The orbital elements are published on M.P.E.C. 2020-K117.
The charts are made with StellaNavigator Ver.10 (AstroArts).
The magnitudes graphs are made with Comet for Windows.

---------------------------------------------------------------------

Copyright(C) Seiichi Yoshida (comet@aerith.net). All rights reserved.